Rechercher aéroport 
image banner adimage banner adimage banner ad
image banner ad

6CL7 - Orange Co Sheriffs Forensics Lab Helistop

Situé à Santa Ana, United States

ICAO - 6CL7, IATA -

Données fournies par Airmate  

Information générale

Coordonnées: N33°44'52" W117°52'39"
Élévation : 223 feet MSL.
Variation magnétique : 14° East
Voir autres Aéroports à California

Données opérationnelles

Special qualification required
Heure actuelle UTC:
Heure actuelle locale:
METAR: KSNA 270553Z 00000KT 10SM OVC017 22/17 A2998 RMK AO2 SLP150 LAST T02170172 10239 20217 51014
TAF: KSNA 270520Z 2706/2806 VRB03KT P6SM OVC015 FM271800 23008KT P6SM SCT015
Voir NOTAMs / SUP AIP / TFR affectant cet aéroport [VIEW]
Fréquences de communication: [VIEW]

Pistes:

Coordonnées de l'aéroport

Adresse: Santa Ana United States

Vue satellite de 6CL7